| time (UTC) | temp F | wind direction | speed knots | gust knots | rain 1hr in | rain 24hr in | rain mn in | humidity % | barometer mb |
| 20260507023109 | 58 | 0 | 1.7 | 7.8 | 0.00 | 0.01 | 0.01 | 89 | 1010.1 |
| 20260507022559 | 58 | 192 | 1.7 | 7.8 | 0.00 | 0.01 | 0.01 | 89 | 1010.0 |
| 20260507022058 | 58 | 236 | 1.7 | 6.1 | 0.00 | 0.01 | 0.01 | 89 | 1010.0 |
| 20260507021557 | 58 | 177 | 3.5 | 6.1 | 0.00 | 0.01 | 0.01 | 89 | 1010.0 |
| 20260507021057 | 58 | 0 | 1.7 | 6.1 | 0.00 | 0.01 | 0.01 | 89 | 1010.1 |
| 20260507020558 | 58 | 239 | 0.9 | 6.1 | 0.00 | 0.01 | 0.01 | 89 | 1010.1 |
| 20260507020100 | 58 | 146 | 1.7 | 6.1 | 0.00 | 0.01 | 0.01 | 89 | 1010.2 |
| 20260507015557 | 58 | 296 | 1.7 | 6.1 | 0.00 | 0.01 | 0.01 | 89 | 1010.0 |
| 20260507015057 | 58 | 153 | 0.9 | 7.0 | 0.00 | 0.01 | 0.01 | 90 | 1010.2 |
| 20260507014557 | 58 | 236 | 1.7 | 7.0 | 0.00 | 0.01 | 0.01 | 90 | 1010.1 |
| 20260507014057 | 58 | 234 | 1.7 | 6.1 | 0.00 | 0.01 | 0.01 | 90 | 1010.3 |
| 20260507013600 | 58 | 0 | 3.5 | 6.1 | 0.00 | 0.01 | 0.01 | 90 | 1010.3 |
| 20260507013057 | 57 | 170 | 1.7 | 5.2 | 0.00 | 0.01 | 0.01 | 90 | 1010.4 |
| 20260507012558 | 57 | 169 | 1.7 | 5.2 | 0.00 | 0.01 | 0.01 | 90 | 1010.5 |
| 20260507012058 | 57 | 232 | 2.6 | 5.2 | 0.00 | 0.01 | 0.01 | 90 | 1010.6 |
| 20260507011601 | 57 | 167 | 2.6 | 6.1 | 0.00 | 0.01 | 0.01 | 90 | 1010.6 |
| 20260507011057 | 57 | 225 | 1.7 | 6.1 | 0.00 | 0.01 | 0.01 | 89 | 1010.8 |
| 20260507010558 | 57 | 154 | 1.7 | 8.7 | 0.00 | 0.01 | 0.01 | 90 | 1010.7 |
| 20260507010058 | 57 | 165 | 2.6 | 8.7 | 0.00 | 0.01 | 0.01 | 89 | 1010.6 |
| 20260507005559 | 57 | 153 | 3.5 | 7.0 | 0.00 | 0.01 | 0.01 | 89 | 1010.7 |
| 20260507005101 | 57 | 163 | 2.6 | 7.8 | 0.00 | 0.01 | 0.01 | 89 | 1010.7 |
| 20260507004557 | 57 | 186 | 3.5 | 7.8 | 0.00 | 0.01 | 0.01 | 89 | 1010.7 |
| 20260507004057 | 57 | 185 | 2.6 | 7.8 | 0.00 | 0.01 | 0.01 | 89 | 1010.7 |
| 20260507003558 | 57 | 160 | 2.6 | 10.4 | 0.00 | 0.01 | 0.01 | 89 | 1010.6 |
| 20260507003116 | 57 | 173 | 2.6 | 10.4 | 0.00 | 0.01 | 0.01 | 89 | 1010.6 |
| 20260507002557 | 57 | 179 | 3.5 | 10.4 | 0.00 | 0.01 | 0.01 | 89 | 1010.6 |
| 20260507002058 | 57 | 167 | 2.6 | 8.7 | 0.00 | 0.01 | 0.01 | 89 | 1010.5 |
| 20260507001615 | 57 | 173 | 3.5 | 8.7 | 0.00 | 0.01 | 0.01 | 89 | 1010.6 |
| 20260507001057 | 57 | 212 | 3.5 | 9.6 | 0.00 | 0.01 | 0.01 | 89 | 1010.3 |
| 20260507000601 | 57 | 181 | 3.5 | 9.6 | 0.00 | 0.01 | 0.01 | 89 | 1010.4 |
| 20260507000058 | 57 | 171 | 1.7 | 7.0 | 0.00 | 0.01 | 0.01 | 89 | 1010.4 |
| 20260506235559 | 57 | 150 | 1.7 | 7.8 | 0.00 | 0.01 | 0.01 | 89 | 1010.4 |
| 20260506235059 | 57 | 155 | 2.6 | 9.6 | 0.00 | 0.01 | 0.01 | 89 | 1010.3 |
| 20260506234558 | 57 | 167 | 3.5 | 9.6 | 0.00 | 0.01 | 0.01 | 88 | 1010.2 |
| 20260506234058 | 57 | 231 | 3.5 | 9.6 | 0.00 | 0.01 | 0.01 | 89 | 1010.3 |
| 20260506233602 | 57 | 156 | 3.5 | 10.4 | 0.00 | 0.01 | 0.01 | 88 | 1010.3 |
| 20260506233058 | 57 | 162 | 5.2 | 10.4 | 0.00 | 0.01 | 0.01 | 88 | 1010.2 |
| 20260506232557 | 57 | 173 | 2.6 | 9.6 | 0.00 | 0.01 | 0.01 | 88 | 1010.3 |
| 20260506232057 | 58 | 169 | 3.5 | 7.0 | 0.00 | 0.01 | 0.01 | 88 | 1010.3 |
| 20260506231606 | 58 | 175 | 3.5 | 9.6 | 0.00 | 0.01 | 0.01 | 88 | 1010.3 |
| 20260506231057 | 58 | 151 | 4.3 | 9.6 | 0.00 | 0.01 | 0.01 | 88 | 1010.6 |
| 20260506230557 | 58 | 167 | 2.6 | 9.6 | 0.00 | 0.01 | 0.01 | 88 | 1010.6 |
| 20260506230113 | 58 | 144 | 3.5 | 8.7 | 0.00 | 0.01 | 0.01 | 88 | 1010.6 |
| 20260506225558 | 58 | 175 | 1.7 | 7.0 | 0.00 | 0.01 | 0.01 | 88 | 1010.6 |
| 20260506225057 | 58 | 162 | 3.5 | 7.0 | 0.00 | 0.01 | 0.01 | 88 | 1010.6 |
| 20260506224558 | 58 | 184 | 2.6 | 7.8 | 0.00 | 0.01 | 0.01 | 88 | 1010.4 |
| 20260506224100 | 58 | 164 | 1.7 | 7.8 | 0.00 | 0.01 | 0.01 | 88 | 1010.4 |
| 20260506223600 | 58 | 151 | 2.6 | 7.8 | 0.00 | 0.01 | 0.01 | 88 | 1010.6 |
| 20260506223103 | 58 | 163 | 0.9 | 9.6 | 0.00 | 0.01 | 0.01 | 88 | 1010.7 |
| 20260506222600 | 58 | 172 | 3.5 | 9.6 | 0.00 | 0.01 | 0.01 | 88 | 1010.8 |
| 20260506222101 | 58 | 153 | 0.9 | 10.4 | 0.01 | 0.01 | 0.01 | 88 | 1010.9 |
| 20260506221614 | 59 | 198 | 3.5 | 10.4 | 0.01 | 0.01 | 0.01 | 88 | 1010.8 |
| 20260506221058 | 59 | 167 | 3.5 | 10.4 | 0.01 | 0.01 | 0.01 | 87 | 1010.9 |
| 20260506220600 | 59 | 161 | 3.5 | 8.7 | 0.01 | 0.01 | 0.01 | 87 | 1010.9 |
| 20260506220056 | 59 | 171 | 1.7 | 8.7 | 0.01 | 0.01 | 0.01 | 87 | 1010.9 |
| 20260506215602 | 59 | 249 | 1.7 | 10.4 | 0.01 | 0.01 | 0.01 | 87 | 1010.9 |
| 20260506215100 | 59 | 153 | 1.7 | 10.4 | 0.01 | 0.01 | 0.01 | 87 | 1011.0 |
| 20260506214559 | 59 | 169 | 1.7 | 11.3 | 0.01 | 0.01 | 0.01 | 87 | 1011.1 |
| 20260506214057 | 59 | 166 | 4.3 | 11.3 | 0.01 | 0.01 | 0.01 | 87 | 1011.1 |
| 20260506213556 | 59 | 201 | 0.9 | 6.1 | 0.01 | 0.01 | 0.01 | 87 | 1011.1 |
| 20260506213103 | 59 | 175 | 2.6 | 10.4 | 0.01 | 0.01 | 0.01 | 86 | 1011.1 |
| 20260506212557 | 60 | 166 | 4.3 | 10.4 | 0.01 | 0.01 | 0.01 | 86 | 1011.2 |
| 20260506212100 | 60 | 225 | 3.5 | 10.4 | 0.00 | 0.00 | 0.00 | 86 | 1011.1 |
| 20260506211557 | 60 | 159 | 3.5 | 7.0 | 0.00 | 0.00 | 0.00 | 86 | 1011.2 |
| 20260506211058 | 60 | 153 | 1.7 | 7.8 | 0.00 | 0.00 | 0.00 | 86 | 1011.2 |
| 20260506210558 | 60 | 181 | 3.5 | 7.8 | 0.00 | 0.00 | 0.00 | 85 | 1011.1 |
| 20260506210059 | 60 | 162 | 1.7 | 6.1 | 0.00 | 0.00 | 0.00 | 85 | 1011.2 |
| 20260506205600 | 61 | 166 | 2.6 | 6.1 | 0.00 | 0.00 | 0.00 | 84 | 1011.3 |
| 20260506205058 | 61 | 171 | 2.6 | 7.0 | 0.00 | 0.00 | 0.00 | 83 | 1011.3 |
| 20260506204558 | 61 | 181 | 2.6 | 10.4 | 0.00 | 0.00 | 0.00 | 83 | 1011.4 |
| 20260506204058 | 61 | 167 | 3.5 | 10.4 | 0.00 | 0.00 | 0.00 | 81 | 1011.4 |
| 20260506203557 | 62 | 161 | 3.5 | 7.8 | 0.00 | 0.00 | 0.00 | 80 | 1011.4 |
| 20260506203119 | 62 | 152 | 2.6 | 10.4 | 0.00 | 0.00 | 0.00 | 80 | 1011.2 |
| 20260506202557 | 62 | 155 | 2.6 | 10.4 | 0.00 | 0.00 | 0.00 | 80 | 1011.3 |
| 20260506202057 | 62 | 163 | 2.6 | 9.6 | 0.00 | 0.00 | 0.00 | 79 | 1011.4 |
| 20260506201556 | 63 | 177 | 4.3 | 10.4 | 0.00 | 0.00 | 0.00 | 77 | 1011.3 |
| 20260506201057 | 63 | 154 | 4.3 | 12.2 | 0.00 | 0.00 | 0.00 | 76 | 1011.3 |
| 20260506200601 | 63 | 163 | 2.6 | 13.0 | 0.00 | 0.00 | 0.00 | 75 | 1011.3 |
| 20260506200058 | 64 | 179 | 5.2 | 13.0 | 0.00 | 0.00 | 0.00 | 75 | 1011.3 |
| 20260506195557 | 64 | 182 | 3.5 | 8.7 | 0.00 | 0.00 | 0.00 | 74 | 1011.3 |
| 20260506195058 | 64 | 178 | 3.5 | 7.8 | 0.00 | 0.00 | 0.00 | 73 | 1011.5 |
| 20260506194600 | 64 | 146 | 2.6 | 7.8 | 0.00 | 0.00 | 0.00 | 73 | 1011.6 |
| 20260506194057 | 64 | 173 | 3.5 | 8.7 | 0.00 | 0.00 | 0.00 | 72 | 1011.5 |
| 20260506193557 | 64 | 157 | 3.5 | 8.7 | 0.00 | 0.00 | 0.00 | 71 | 1011.7 |
| 20260506193106 | 65 | 159 | 3.5 | 9.6 | 0.00 | 0.00 | 0.00 | 70 | 1011.7 |
| 20260506192557 | 65 | 185 | 3.5 | 9.6 | 0.00 | 0.00 | 0.00 | 69 | 1011.7 |
| 20260506192057 | 66 | 200 | 2.6 | 12.2 | 0.00 | 0.00 | 0.00 | 68 | 1011.7 |
| 20260506191556 | 66 | 175 | 3.5 | 18.2 | 0.00 | 0.00 | 0.00 | 66 | 1011.7 |
| 20260506191057 | 66 | 186 | 7.8 | 18.2 | 0.00 | 0.00 | 0.00 | 64 | 1011.7 |
| 20260506190556 | 67 | 178 | 2.6 | 13.0 | 0.00 | 0.00 | 0.00 | 64 | 1011.7 |
| 20260506190056 | 67 | 159 | 4.3 | 13.0 | 0.00 | 0.00 | 0.00 | 64 | 1011.6 |
| 20260506185557 | 67 | 167 | 4.3 | 13.9 | 0.00 | 0.00 | 0.00 | 64 | 1011.7 |
| 20260506185057 | 67 | 171 | 5.2 | 13.9 | 0.00 | 0.00 | 0.00 | 63 | 1011.5 |
| 20260506184554 | 67 | 207 | 4.3 | 14.8 | 0.00 | 0.00 | 0.00 | 63 | 1011.6 |
| 20260506184057 | 67 | 135 | 6.1 | 14.8 | 0.00 | 0.00 | 0.00 | 63 | 1011.6 |
| 20260506183601 | 67 | 198 | 4.3 | 13.9 | 0.00 | 0.00 | 0.00 | 64 | 1011.7 |
| 20260506183105 | 67 | 184 | 4.3 | 10.4 | 0.00 | 0.00 | 0.00 | 64 | 1011.8 |
| 20260506182557 | 67 | 178 | 2.6 | 13.9 | 0.00 | 0.00 | 0.00 | 64 | 1011.8 |
| 20260506182056 | 67 | 165 | 6.1 | 13.9 | 0.00 | 0.00 | 0.00 | 63 | 1011.8 |
| 20260506181604 | 67 | 152 | 6.1 | 12.2 | 0.00 | 0.00 | 0.00 | 63 | 1011.9 |
| 20260506181056 | 68 | 166 | 4.3 | 11.3 | 0.00 | 0.00 | 0.00 | 63 | 1011.9 |
| 20260506180557 | 68 | 161 | 5.2 | 13.0 | 0.00 | 0.00 | 0.00 | 62 | 1012.0 |
| 20260506180058 | 69 | 178 | 2.6 | 16.5 | 0.00 | 0.00 | 0.00 | 61 | 1012.1 |
| 20260506175556 | 69 | 169 | 6.1 | 16.5 | 0.00 | 0.00 | 0.00 | 59 | 1012.3 |
| 20260506175059 | 70 | 174 | 4.3 | 13.9 | 0.00 | 0.00 | 0.00 | 59 | 1012.1 |
| 20260506174556 | 70 | 180 | 5.2 | 13.9 | 0.00 | 0.00 | 0.00 | 59 | 1012.3 |
| 20260506174057 | 69 | 176 | 4.3 | 13.0 | 0.00 | 0.00 | 0.00 | 60 | 1012.4 |
| 20260506173557 | 69 | 180 | 5.2 | 11.3 | 0.00 | 0.00 | 0.00 | 61 | 1012.5 |
| 20260506173106 | 69 | 163 | 4.3 | 12.2 | 0.00 | 0.00 | 0.00 | 61 | 1012.5 |
| 20260506172556 | 69 | 155 | 6.1 | 15.6 | 0.00 | 0.00 | 0.00 | 61 | 1012.4 |
| 20260506172057 | 69 | 173 | 5.2 | 15.6 | 0.00 | 0.00 | 0.00 | 61 | 1012.4 |
| 20260506171558 | 69 | 161 | 7.0 | 14.8 | 0.00 | 0.00 | 0.00 | 61 | 1012.3 |
| 20260506171057 | 68 | 165 | 2.6 | 13.0 | 0.00 | 0.00 | 0.00 | 61 | 1012.4 |
| 20260506170556 | 68 | 176 | 6.1 | 16.5 | 0.00 | 0.00 | 0.00 | 62 | 1012.4 |
| 20260506170106 | 68 | 155 | 7.0 | 16.5 | 0.00 | 0.00 | 0.00 | 62 | 1012.4 |
| 20260506165556 | 68 | 134 | 6.1 | 13.9 | 0.00 | 0.00 | 0.00 | 61 | 1012.7 |
| 20260506165056 | 68 | 171 | 3.5 | 13.0 | 0.00 | 0.00 | 0.00 | 61 | 1012.6 |
| 20260506164625 | 69 | 181 | 6.1 | 13.0 | 0.00 | 0.00 | 0.00 | 61 | 1012.8 |
| 20260506164056 | 69 | 160 | 5.2 | 13.0 | 0.00 | 0.00 | 0.00 | 60 | 1012.8 |
| 20260506163556 | 69 | 119 | 4.3 | 11.3 | 0.00 | 0.00 | 0.00 | 61 | 1012.8 |
| 20260506163109 | 69 | 171 | 5.2 | 11.3 | 0.00 | 0.00 | 0.00 | 60 | 1012.8 |
| 20260506162556 | 69 | 166 | 3.5 | 8.7 | 0.00 | 0.00 | 0.00 | 61 | 1013.0 |
| 20260506162056 | 69 | 163 | 3.5 | 12.2 | 0.00 | 0.00 | 0.00 | 60 | 1013.1 |
| 20260506161559 | 69 | 177 | 5.2 | 11.3 | 0.00 | 0.00 | 0.00 | 61 | 1013.1 |
| 20260506161100 | 69 | 178 | 4.3 | 12.2 | 0.00 | 0.00 | 0.00 | 60 | 1013.2 |
| 20260506160557 | 69 | 155 | 4.3 | 12.2 | 0.00 | 0.00 | 0.00 | 61 | 1013.2 |
| 20260506160120 | 69 | 149 | 6.1 | 11.3 | 0.00 | 0.00 | 0.00 | 61 | 1013.4 |
| 20260506155557 | 69 | 190 | 3.5 | 8.7 | 0.00 | 0.00 | 0.00 | 61 | 1013.6 |
| 20260506155057 | 69 | 185 | 5.2 | 11.3 | 0.00 | 0.00 | 0.00 | 61 | 1013.5 |
| 20260506154558 | 69 | 223 | 4.3 | 13.9 | 0.00 | 0.00 | 0.00 | 60 | 1013.7 |
| 20260506154057 | 69 | 165 | 3.5 | 13.9 | 0.00 | 0.00 | 0.00 | 60 | 1013.6 |
| 20260506153601 | 69 | 145 | 5.2 | 13.9 | 0.00 | 0.00 | 0.00 | 60 | 1013.7 |
| 20260506153058 | 69 | 146 | 4.3 | 11.3 | 0.00 | 0.00 | 0.00 | 60 | 1013.7 |
| 20260506152556 | 69 | 154 | 3.5 | 11.3 | 0.00 | 0.00 | 0.00 | 60 | 1013.7 |
| 20260506152101 | 69 | 171 | 6.1 | 11.3 | 0.00 | 0.00 | 0.00 | 60 | 1013.8 |
| 20260506151555 | 69 | 182 | 4.3 | 13.0 | 0.00 | 0.00 | 0.00 | 60 | 1013.9 |
| 20260506151057 | 69 | 157 | 5.2 | 13.0 | 0.00 | 0.00 | 0.00 | 60 | 1013.8 |
| 20260506150556 | 69 | 159 | 5.2 | 11.3 | 0.00 | 0.00 | 0.00 | 60 | 1013.8 |
| 20260506145554 | 69 | 170 | 4.3 | 12.2 | 0.00 | 0.00 | 0.00 | 61 | 1013.8 |
| 20260506145057 | 68 | 171 | 5.2 | 12.2 | 0.00 | 0.00 | 0.00 | 61 | 1013.7 |
| 20260506144555 | 69 | 168 | 4.3 | 13.9 | 0.00 | 0.00 | 0.00 | 62 | 1013.8 |
| 20260506144056 | 68 | 172 | 5.2 | 13.9 | 0.00 | 0.00 | 0.00 | 62 | 1013.5 |
| 20260506143557 | 68 | 160 | 5.2 | 10.4 | 0.00 | 0.00 | 0.00 | 62 | 1013.6 |
| 20260506143056 | 68 | 136 | 1.7 | 10.4 | 0.00 | 0.00 | 0.00 | 63 | 1013.5 |
| 20260506142557 | 68 | 153 | 3.5 | 12.2 | 0.00 | 0.00 | 0.00 | 63 | 1013.5 |
| 20260506142058 | 67 | 163 | 5.2 | 17.4 | 0.00 | 0.00 | 0.00 | 63 | 1013.6 |
| 20260506141556 | 68 | 173 | 5.2 | 13.9 | 0.00 | 0.00 | 0.00 | 63 | 1013.6 |
| 20260506141057 | 68 | 152 | 5.2 | 11.3 | 0.00 | 0.00 | 0.00 | 63 | 1013.6 |
| 20260506140558 | 68 | 163 | 4.3 | 11.3 | 0.00 | 0.00 | 0.00 | 63 | 1013.6 |
| 20260506140056 | 68 | 165 | 6.1 | 10.4 | 0.00 | 0.00 | 0.00 | 63 | 1013.7 |
| 20260506135557 | 68 | 159 | 2.6 | 9.6 | 0.00 | 0.00 | 0.00 | 64 | 1013.6 |
| 20260506135056 | 67 | 162 | 3.5 | 9.6 | 0.00 | 0.00 | 0.00 | 65 | 1013.6 |
| 20260506134555 | 67 | 190 | 4.3 | 11.3 | 0.00 | 0.00 | 0.00 | 65 | 1013.7 |
| 20260506134059 | 66 | 182 | 3.5 | 11.3 | 0.00 | 0.00 | 0.00 | 68 | 1014.0 |
| 20260506133556 | 65 | 176 | 4.3 | 12.2 | 0.00 | 0.00 | 0.00 | 68 | 1014.2 |
| 20260506133109 | 65 | 155 | 4.3 | 15.6 | 0.00 | 0.00 | 0.00 | 68 | 1014.2 |
| 20260506132558 | 65 | 166 | 5.2 | 15.6 | 0.00 | 0.00 | 0.00 | 68 | 1014.2 |
| 20260506132100 | 65 | 163 | 6.1 | 13.9 | 0.00 | 0.00 | 0.00 | 68 | 1014.2 |
| 20260506131616 | 65 | 180 | 4.3 | 12.2 | 0.00 | 0.00 | 0.00 | 70 | 1014.1 |
| 20260506131057 | 64 | 172 | 2.6 | 13.9 | 0.00 | 0.00 | 0.00 | 71 | 1014.2 |
| 20260506130557 | 64 | 161 | 2.6 | 13.9 | 0.00 | 0.00 | 0.00 | 71 | 1014.1 |
| 20260506130058 | 63 | 162 | 5.2 | 15.6 | 0.00 | 0.00 | 0.00 | 71 | 1014.2 |
| 20260506125556 | 63 | 173 | 2.6 | 15.6 | 0.00 | 0.00 | 0.00 | 72 | 1014.2 |
| 20260506125056 | 63 | 162 | 1.7 | 8.7 | 0.00 | 0.00 | 0.00 | 73 | 1014.1 |
| 20260506124554 | 62 | 159 | 2.6 | 10.4 | 0.00 | 0.00 | 0.00 | 73 | 1014.2 |
| 20260506124056 | 62 | 169 | 4.3 | 10.4 | 0.00 | 0.00 | 0.00 | 73 | 1014.3 |
| 20260506123556 | 62 | 166 | 4.3 | 8.7 | 0.00 | 0.00 | 0.00 | 74 | 1014.1 |
| 20260506123057 | 62 | 240 | 2.6 | 8.7 | 0.00 | 0.00 | 0.00 | 75 | 1014.1 |
| 20260506122557 | 61 | 170 | 5.2 | 13.9 | 0.00 | 0.00 | 0.00 | 75 | 1014.0 |
| 20260506122056 | 61 | 197 | 3.5 | 13.9 | 0.00 | 0.00 | 0.00 | 76 | 1013.9 |
| 20260506121557 | 61 | 164 | 5.2 | 10.4 | 0.00 | 0.00 | 0.00 | 76 | 1014.1 |
| 20260506121056 | 61 | 150 | 2.6 | 13.0 | 0.00 | 0.00 | 0.00 | 77 | 1014.1 |
| 20260506120553 | 61 | 186 | 3.5 | 13.0 | 0.00 | 0.00 | 0.00 | 77 | 1014.4 |
| 20260506120103 | 60 | 163 | 3.5 | 7.8 | 0.00 | 0.00 | 0.00 | 77 | 1014.6 |
| 20260506115555 | 60 | 177 | 4.3 | 10.4 | 0.00 | 0.00 | 0.00 | 77 | 1014.5 |
| 20260506115057 | 60 | 169 | 2.6 | 10.4 | 0.00 | 0.00 | 0.00 | 78 | 1014.6 |
| 20260506114556 | 60 | 175 | 4.3 | 9.6 | 0.00 | 0.00 | 0.00 | 78 | 1014.9 |
| 20260506114101 | 60 | 157 | 4.3 | 9.6 | 0.00 | 0.00 | 0.00 | 78 | 1014.9 |
| 20260506113556 | 60 | 207 | 4.3 | 9.6 | 0.00 | 0.00 | 0.00 | 79 | 1014.8 |
| 20260506113055 | 59 | 178 | 2.6 | 8.7 | 0.00 | 0.00 | 0.00 | 79 | 1014.8 |
| 20260506112557 | 59 | 166 | 0.9 | 8.7 | 0.00 | 0.00 | 0.00 | 80 | 1014.7 |
| 20260506112059 | 59 | 162 | 2.6 | 12.2 | 0.00 | 0.00 | 0.00 | 80 | 1014.7 |
| 20260506111557 | 59 | 165 | 6.1 | 12.2 | 0.00 | 0.00 | 0.00 | 80 | 1014.5 |
| 20260506111056 | 59 | 180 | 3.5 | 7.8 | 0.00 | 0.00 | 0.00 | 80 | 1014.5 |
| 20260506110556 | 59 | 163 | 2.6 | 7.8 | 0.00 | 0.00 | 0.00 | 80 | 1014.6 |
| 20260506110111 | 59 | 157 | 1.7 | 8.7 | 0.00 | 0.00 | 0.00 | 80 | 1014.6 |
| 20260506105556 | 59 | 159 | 3.5 | 8.7 | 0.00 | 0.00 | 0.00 | 80 | 1014.6 |
| 20260506105055 | 59 | 166 | 4.3 | 11.3 | 0.00 | 0.00 | 0.00 | 80 | 1014.7 |
| 20260506104613 | 59 | 160 | 4.3 | 11.3 | 0.00 | 0.00 | 0.00 | 80 | 1014.7 |
| 20260506104054 | 59 | 151 | 1.7 | 7.0 | 0.00 | 0.00 | 0.00 | 80 | 1014.8 |
| 20260506103557 | 59 | 132 | 3.5 | 7.8 | 0.00 | 0.00 | 0.00 | 79 | 1014.7 |
| 20260506103055 | 59 | 167 | 2.6 | 10.4 | 0.00 | 0.00 | 0.00 | 79 | 1014.7 |
| 20260506102557 | 59 | 0 | 4.3 | 10.4 | 0.00 | 0.00 | 0.00 | 79 | 1014.5 |
| 20260506102059 | 59 | 170 | 2.6 | 10.4 | 0.00 | 0.00 | 0.00 | 79 | 1014.5 |
| 20260506101600 | 59 | 161 | 2.6 | 10.4 | 0.00 | 0.00 | 0.00 | 79 | 1014.7 |
| 20260506101057 | 59 | 158 | 2.6 | 9.6 | 0.00 | 0.00 | 0.00 | 79 | 1014.4 |
| 20260506100601 | 59 | 155 | 4.3 | 7.8 | 0.00 | 0.00 | 0.00 | 79 | 1014.5 |
| 20260506100112 | 59 | 159 | 2.6 | 8.7 | 0.00 | 0.00 | 0.00 | 78 | 1014.3 |
| 20260506095556 | 59 | 190 | 2.6 | 8.7 | 0.00 | 0.00 | 0.00 | 78 | 1014.2 |
| 20260506095059 | 59 | 165 | 3.5 | 11.3 | 0.00 | 0.00 | 0.00 | 78 | 1014.3 |
| 20260506094603 | 59 | 153 | 4.3 | 11.3 | 0.00 | 0.00 | 0.00 | 78 | 1014.3 |
| 20260506094058 | 59 | 162 | 4.3 | 9.6 | 0.00 | 0.00 | 0.00 | 78 | 1014.3 |
| 20260506093600 | 59 | 159 | 3.5 | 7.8 | 0.00 | 0.00 | 0.00 | 78 | 1014.2 |
| 20260506093056 | 59 | 155 | 1.7 | 7.8 | 0.00 | 0.00 | 0.00 | 78 | 1014.2 |
| 20260506092559 | 59 | 159 | 3.5 | 10.4 | 0.00 | 0.00 | 0.00 | 78 | 1014.1 |
| 20260506092059 | 59 | 176 | 3.5 | 10.4 | 0.00 | 0.00 | 0.00 | 78 | 1014.2 |
| 20260506091605 | 59 | 175 | 2.6 | 11.3 | 0.00 | 0.00 | 0.00 | 78 | 1014.2 |
| 20260506091057 | 59 | 153 | 3.5 | 11.3 | 0.00 | 0.00 | 0.00 | 77 | 1014.3 |
| 20260506090600 | 59 | 155 | 5.2 | 8.7 | 0.00 | 0.00 | 0.00 | 77 | 1014.3 |
| 20260506090059 | 59 | 173 | 3.5 | 8.7 | 0.00 | 0.00 | 0.00 | 77 | 1014.3 |
| 20260506085557 | 60 | 176 | 3.5 | 8.7 | 0.00 | 0.00 | 0.00 | 77 | 1014.4 |
| 20260506085057 | 60 | 143 | 3.5 | 8.7 | 0.00 | 0.00 | 0.00 | 76 | 1014.4 |
| 20260506084624 | 60 | 175 | 2.6 | 8.7 | 0.00 | 0.00 | 0.00 | 76 | 1014.4 |
| 20260506084058 | 60 | 157 | 4.3 | 8.7 | 0.00 | 0.00 | 0.00 | 76 | 1014.3 |
| 20260506083559 | 60 | 167 | 3.5 | 9.6 | 0.00 | 0.00 | 0.00 | 75 | 1014.3 |
| 20260506083059 | 60 | 156 | 3.5 | 9.6 | 0.00 | 0.00 | 0.00 | 75 | 1014.3 |
| 20260506082602 | 61 | 151 | 5.2 | 9.6 | 0.00 | 0.00 | 0.00 | 74 | 1014.3 |
| 20260506082058 | 61 | 169 | 5.2 | 9.6 | 0.00 | 0.00 | 0.00 | 74 | 1014.3 |
| 20260506081601 | 61 | 178 | 3.5 | 13.9 | 0.00 | 0.00 | 0.00 | 74 | 1014.3 |
| 20260506081058 | 61 | 169 | 2.6 | 13.9 | 0.00 | 0.00 | 0.00 | 74 | 1014.2 |
| 20260506080602 | 61 | 167 | 3.5 | 10.4 | 0.00 | 0.00 | 0.00 | 74 | 1014.3 |
| 20260506073058 | 61 | 282 | 4.3 | 9.6 | 0.00 | 0.00 | 0.00 | 73 | 1014.1 |
| 20260506072558 | 61 | 171 | 3.5 | 9.6 | 0.00 | 0.00 | 0.00 | 73 | 1014.2 |
| 20260506072058 | 61 | 172 | 3.5 | 12.2 | 0.00 | 0.00 | 0.00 | 73 | 1014.1 |
| 20260506071558 | 61 | 151 | 3.5 | 12.2 | 0.00 | 0.00 | 0.00 | 73 | 1014.1 |
| 20260506071059 | 61 | 152 | 4.3 | 10.4 | 0.00 | 0.00 | 0.00 | 73 | 1014.1 |
| 20260506070558 | 61 | 166 | 3.5 | 10.4 | 0.00 | 0.00 | 0.00 | 72 | 1014.2 |
| 20260506062058 | 61 | 175 | 3.5 | 10.4 | 0.00 | 0.00 | 0.00 | 70 | 1014.1 |
| 20260506061557 | 61 | 171 | 4.3 | 10.4 | 0.00 | 0.00 | 0.00 | 70 | 1014.1 |
| 20260506061058 | 61 | 155 | 6.1 | 10.4 | 0.00 | 0.00 | 0.00 | 70 | 1014.1 |
| 20260506060557 | 61 | 171 | 5.2 | 10.4 | 0.00 | 0.00 | 0.00 | 70 | 1013.9 |
| 20260506051058 | 61 | 181 | 4.3 | 9.6 | 0.00 | 0.00 | 0.00 | 68 | 1014.4 |
| 20260506050559 | 61 | 159 | 3.5 | 10.4 | 0.00 | 0.00 | 0.00 | 67 | 1014.5 |
| 20260506045058 | 62 | 180 | 1.7 | 8.7 | 0.00 | 0.00 | 0.00 | 66 | 1014.6 |
| 20260506044557 | 62 | 171 | 3.5 | 9.6 | 0.00 | 0.00 | 0.00 | 65 | 1014.6 |
| 20260506044057 | 62 | 165 | 4.3 | 10.4 | 0.00 | 0.00 | 0.00 | 65 | 1014.7 |
| 20260506043557 | 62 | 167 | 6.1 | 10.4 | 0.00 | 0.00 | 0.00 | 65 | 1014.7 |
| 20260506043056 | 62 | 184 | 3.5 | 11.3 | 0.00 | 0.00 | 0.00 | 65 | 1014.7 |
| 20260506042559 | 61 | 192 | 4.3 | 13.0 | 0.00 | 0.00 | 0.00 | 65 | 1014.6 |
| 20260506042100 | 61 | 188 | 3.5 | 13.0 | 0.00 | 0.00 | 0.00 | 65 | 1014.7 |
| 20260506041606 | 61 | 158 | 5.2 | 13.0 | 0.00 | 0.00 | 0.00 | 64 | 1014.6 |
| 20260506041058 | 61 | 153 | 4.3 | 11.3 | 0.00 | 0.00 | 0.00 | 64 | 1014.7 |
| 20260506040558 | 61 | 147 | 3.5 | 11.3 | 0.00 | 0.00 | 0.00 | 64 | 1014.7 |
| 20260506040059 | 61 | 184 | 6.1 | 11.3 | 0.00 | 0.00 | 0.00 | 64 | 1014.6 |
| 20260506035557 | 61 | 172 | 4.3 | 10.4 | 0.00 | 0.00 | 0.00 | 64 | 1014.5 |
| 20260506035058 | 61 | 178 | 4.3 | 10.4 | 0.00 | 0.00 | 0.00 | 64 | 1014.6 |
| 20260506034557 | 61 | 183 | 4.3 | 11.3 | 0.00 | 0.00 | 0.00 | 63 | 1014.5 |
| 20260506034057 | 62 | 177 | 4.3 | 11.3 | 0.00 | 0.00 | 0.00 | 63 | 1014.5 |
| 20260506033557 | 62 | 157 | 4.3 | 8.7 | 0.00 | 0.00 | 0.00 | 63 | 1014.4 |
| 20260506033100 | 62 | 161 | 3.5 | 9.6 | 0.00 | 0.00 | 0.00 | 63 | 1014.4 |
| 20260506032601 | 62 | 178 | 3.5 | 11.3 | 0.00 | 0.00 | 0.00 | 62 | 1014.6 |
| 20260506032059 | 62 | 171 | 4.3 | 11.3 | 0.00 | 0.00 | 0.00 | 62 | 1014.4 |
| 20260506031557 | 62 | 154 | 4.3 | 14.8 | 0.00 | 0.00 | 0.00 | 62 | 1014.5 |
| 20260506031059 | 62 | 154 | 5.2 | 14.8 | 0.00 | 0.00 | 0.00 | 61 | 1014.4 |
| 20260506030559 | 62 | 198 | 4.3 | 8.7 | 0.00 | 0.00 | 0.00 | 61 | 1014.4 |
| 20260506030100 | 63 | 171 | 3.5 | 10.4 | 0.00 | 0.00 | 0.00 | 61 | 1014.4 |
| 20260506025557 | 63 | 172 | 4.3 | 10.4 | 0.00 | 0.00 | 0.00 | 61 | 1014.4 |
| 20260506025100 | 63 | 185 | 3.5 | 10.4 | 0.00 | 0.00 | 0.00 | 61 | 1014.5 |
| 20260506024557 | 63 | 221 | 4.3 | 10.4 | 0.00 | 0.00 | 0.00 | 60 | 1014.4 |
| 20260506024057 | 63 | 172 | 4.3 | 10.4 | 0.00 | 0.00 | 0.00 | 60 | 1014.4 |
| 20260506023558 | 63 | 157 | 5.2 | 12.2 | 0.00 | 0.00 | 0.00 | 61 | 1014.2 |